Tracking 33165 objects as of 8-Feb-2026
HD Live streaming from Space Station
objects crossing your sky now

CZ-8A R/B

Track CZ-8A R/B now!
10-day predictions


NORAD ID: 66924
Int'l Code: 2025-286K
Perigee: 711.8 km
Apogee: 882.3 km
Inclination: 50.0 °
Period: 100.7 minutes
Semi major axis: 7168 km
RCS: Unknown
Launch date: December 6, 2025
Source: People's Republic of China (PRC)
Launch site: Wenchang Satellite Launch Center (WSC)

Note: This is a ROCKET BODY
Your satellite tracking list
Your tracking list is empty




NASA's NSSDC Master Catalog

Two Line Element Set (TLE):
1 66924U 25285K   26038.87372367  .00000074  00000-0  84269-4 0  9995
2 66924  50.0063 232.9539 0118935 308.0395  50.9835 14.30532567  9107
Source of the keplerian elements: AFSPC